| time (UTC) | temp C | wind direction | speed KPH | gust KPH | rain 1hr cm | rain 24hr cm | rain mn cm | humidity % | barometer mb |
| 20260901154341 | 30 | 78 | 3.2 | 12.9 | 0.00 | 0.20 | 0.00 | 53 | 1013.3 |
| 20260901153328 | 30 | 119 | 3.2 | 12.9 | 0.00 | 0.20 | 0.00 | 53 | 1013.3 |
| 20260901152336 | 29 | 88 | 4.8 | 11.3 | 0.00 | 0.20 | 0.00 | 55 | 1013.3 |
| 20260901151327 | 28 | 58 | 3.2 | 12.9 | 0.00 | 0.20 | 0.00 | 56 | 1013.1 |
| 20260901150333 | 28 | 58 | 6.4 | 14.5 | 0.00 | 0.20 | 0.00 | 56 | 1013.1 |
| 20260901145359 | 28 | 113 | 3.2 | 12.9 | 0.00 | 0.53 | 0.00 | 57 | 1013.1 |
| 20260901144344 | 28 | 67 | 3.2 | 8.0 | 0.00 | 0.53 | 0.00 | 58 | 1013.1 |
| 20260901143331 | 27 | 104 | 1.6 | 6.4 | 0.00 | 0.53 | 0.00 | 61 | 1013.0 |
| 20260901142343 | 27 | 53 | 0.0 | 4.8 | 0.00 | 0.53 | 0.00 | 64 | 1013.1 |
| 20260901141330 | 26 | 110 | 1.6 | 4.8 | 0.00 | 0.53 | 0.00 | 66 | 1013.1 |
| 20260901140337 | 26 | 84 | 0.0 | 1.6 | 0.00 | 0.53 | 0.00 | 68 | 1013.1 |
| 20260901135404 | 25 | 101 | 0.0 | 3.2 | 0.00 | 0.56 | 0.00 | 69 | 1013.0 |
| 20260901134333 | 25 | 67 | 0.0 | 1.6 | 0.00 | 0.56 | 0.00 | 69 | 1012.9 |
| 20260901133339 | 25 | 67 | 0.0 | 0.0 | 0.00 | 0.56 | 0.00 | 69 | 1012.9 |
| 20260901132327 | 25 | 67 | 0.0 | 0.0 | 0.00 | 0.56 | 0.00 | 69 | 1012.7 |
| 20260901131354 | 25 | 67 | 0.0 | 1.6 | 0.00 | 0.56 | 0.00 | 69 | 1012.6 |
| 20260901130344 | 25 | 65 | 0.0 | 1.6 | 0.00 | 0.56 | 0.00 | 69 | 1012.4 |
| 20260901125331 | 25 | 95 | 0.0 | 0.0 | 0.00 | 0.56 | 0.00 | 68 | 1012.5 |
| 20260901124337 | 25 | 95 | 0.0 | 0.0 | 0.00 | 0.56 | 0.00 | 67 | 1012.5 |
| 20260901123345 | 25 | 95 | 0.0 | 0.0 | 0.00 | 0.56 | 0.00 | 66 | 1012.4 |
| 20260901122356 | 25 | 95 | 0.0 | 0.0 | 0.00 | 0.56 | 0.00 | 65 | 1012.4 |
| 20260901121341 | 26 | 95 | 0.0 | 1.6 | 0.00 | 0.56 | 0.00 | 65 | 1012.3 |
| 20260901120345 | 26 | 80 | 0.0 | 0.0 | 0.00 | 0.56 | 0.00 | 64 | 1012.2 |
| 20260901115331 | 26 | 80 | 0.0 | 1.6 | 0.00 | 0.56 | 0.00 | 64 | 1012.1 |
| 20260901114341 | 26 | 74 | 0.0 | 1.6 | 0.00 | 0.56 | 0.00 | 63 | 1012.1 |
| 20260901113327 | 26 | 76 | 0.0 | 1.6 | 0.00 | 0.56 | 0.00 | 63 | 1012.1 |
| 20260901112334 | 26 | 80 | 1.6 | 6.4 | 0.00 | 0.56 | 0.00 | 63 | 1011.9 |
| 20260901111400 | 26 | 66 | 1.6 | 6.4 | 0.00 | 0.56 | 0.00 | 64 | 1012.0 |
| 20260901110331 | 26 | 67 | 0.0 | 4.8 | 0.00 | 0.56 | 0.00 | 65 | 1011.9 |
| 20260901105338 | 26 | 66 | 1.6 | 6.4 | 0.00 | 0.56 | 0.00 | 65 | 1011.9 |
| 20260901104345 | 26 | 45 | 0.0 | 0.0 | 0.00 | 0.56 | 0.00 | 67 | 1011.9 |
| 20260901103351 | 26 | 67 | 0.0 | 0.0 | 0.00 | 0.56 | 0.00 | 67 | 1011.9 |
| 20260901102336 | 26 | 84 | 0.0 | 3.2 | 0.00 | 0.56 | 0.00 | 67 | 1012.0 |
| 20260901101405 | 26 | 78 | 0.0 | 0.0 | 0.00 | 0.56 | 0.00 | 66 | 1012.0 |
| 20260901100331 | 26 | 67 | 0.0 | 1.6 | 0.00 | 0.56 | 0.00 | 66 | 1012.0 |
| 20260901095337 | 26 | 75 | 0.0 | 3.2 | 0.00 | 0.56 | 0.00 | 66 | 1012.0 |
| 20260901094345 | 26 | 90 | 0.0 | 4.8 | 0.00 | 0.56 | 0.00 | 66 | 1012.0 |
| 20260901093335 | 26 | 102 | 0.0 | 3.2 | 0.00 | 0.56 | 0.00 | 66 | 1012.1 |
| 20260901092342 | 26 | 59 | 0.0 | 3.2 | 0.00 | 0.56 | 0.00 | 65 | 1012.1 |
| 20260901091331 | 26 | 65 | 1.6 | 3.2 | 0.00 | 0.56 | 0.00 | 65 | 1012.0 |
| 20260901090338 | 26 | 99 | 0.0 | 3.2 | 0.00 | 0.56 | 0.00 | 64 | 1012.1 |
| 20260901085328 | 26 | 61 | 0.0 | 1.6 | 0.00 | 0.56 | 0.00 | 64 | 1012.2 |
| 20260901084334 | 26 | 56 | 0.0 | 0.0 | 0.00 | 0.56 | 0.00 | 63 | 1012.2 |
| 20260901083340 | 26 | 55 | 0.0 | 0.0 | 0.00 | 0.56 | 0.00 | 62 | 1012.2 |
| 20260901082329 | 27 | 46 | 0.0 | 3.2 | 0.00 | 0.56 | 0.00 | 62 | 1012.2 |
| 20260901081335 | 27 | 67 | 0.0 | 4.8 | 0.00 | 0.56 | 0.00 | 62 | 1012.2 |
| 20260901080342 | 27 | 61 | 1.6 | 4.8 | 0.00 | 0.56 | 0.00 | 61 | 1012.2 |
| 20260901075329 | 27 | 88 | 1.6 | 3.2 | 0.00 | 0.56 | 0.00 | 60 | 1012.2 |
| 20260901074341 | 27 | 80 | 0.0 | 1.6 | 0.00 | 0.56 | 0.00 | 59 | 1012.3 |
| 20260901073327 | 27 | 57 | 0.0 | 4.8 | 0.00 | 0.56 | 0.00 | 58 | 1012.2 |
| 20260901072333 | 27 | 46 | 1.6 | 4.8 | 0.00 | 0.56 | 0.00 | 57 | 1012.1 |
| 20260901071341 | 27 | 70 | 0.0 | 4.8 | 0.00 | 0.56 | 0.00 | 56 | 1012.0 |
| 20260901070332 | 28 | 54 | 0.0 | 3.2 | 0.00 | 0.56 | 0.00 | 56 | 1012.0 |
| 20260901065340 | 28 | 21 | 0.0 | 1.6 | 0.00 | 0.58 | 0.56 | 56 | 1011.9 |
| 20260901064326 | 28 | 38 | 0.0 | 3.2 | 0.00 | 0.58 | 0.56 | 55 | 1011.9 |
| 20260901063333 | 28 | 97 | 1.6 | 4.8 | 0.00 | 0.58 | 0.56 | 55 | 1011.8 |
| 20260901062343 | 28 | 116 | 0.0 | 6.4 | 0.00 | 0.58 | 0.56 | 55 | 1011.8 |
| 20260901061331 | 28 | 153 | 3.2 | 6.4 | 0.00 | 0.58 | 0.56 | 54 | 1011.7 |
| 20260901060338 | 28 | 128 | 0.0 | 4.8 | 0.00 | 0.58 | 0.56 | 53 | 1011.6 |
| 20260901055344 | 28 | 101 | 0.0 | 4.8 | 0.00 | 0.64 | 0.56 | 53 | 1011.5 |
| 20260901054335 | 28 | 159 | 1.6 | 9.7 | 0.00 | 0.64 | 0.56 | 53 | 1011.6 |
| 20260901053402 | 28 | 97 | 3.2 | 8.0 | 0.00 | 0.64 | 0.56 | 53 | 1011.6 |
| 20260901052347 | 28 | 171 | 1.6 | 6.4 | 0.00 | 0.64 | 0.56 | 53 | 1011.6 |
| 20260901051335 | 28 | 146 | 4.8 | 11.3 | 0.00 | 0.64 | 0.56 | 52 | 1011.6 |
| 20260901050326 | 28 | 134 | 3.2 | 14.5 | 0.00 | 0.64 | 0.56 | 52 | 1011.6 |
| 20260901045333 | 28 | 136 | 3.2 | 9.7 | 0.00 | 0.66 | 0.56 | 51 | 1011.5 |
| 20260901044340 | 28 | 107 | 4.8 | 9.7 | 0.00 | 0.66 | 0.56 | 50 | 1011.5 |
| 20260901043328 | 29 | 143 | 1.6 | 6.4 | 0.00 | 0.66 | 0.56 | 51 | 1011.5 |
| 20260901042338 | 29 | 151 | 6.4 | 14.5 | 0.00 | 0.66 | 0.56 | 50 | 1011.4 |
| 20260901041326 | 29 | 147 | 4.8 | 8.0 | 0.00 | 0.66 | 0.56 | 50 | 1011.3 |
| 20260901040353 | 29 | 140 | 4.8 | 8.0 | 0.00 | 0.66 | 0.56 | 49 | 1011.3 |
| 20260901035339 | 30 | 196 | 4.8 | 8.0 | 0.00 | 0.66 | 0.56 | 49 | 1011.3 |
| 20260901034329 | 30 | 204 | 1.6 | 11.3 | 0.00 | 0.66 | 0.56 | 48 | 1011.3 |
| 20260901033336 | 30 | 146 | 1.6 | 8.0 | 0.00 | 0.66 | 0.56 | 47 | 1011.1 |
| 20260901032344 | 30 | 186 | 3.2 | 8.0 | 0.00 | 0.66 | 0.56 | 46 | 1011.1 |
| 20260901031328 | 30 | 173 | 1.6 | 8.0 | 0.00 | 0.66 | 0.56 | 46 | 1010.8 |
| 20260901030339 | 30 | 182 | 4.8 | 11.3 | 0.00 | 0.66 | 0.56 | 46 | 1010.7 |
| 20260901025325 | 30 | 165 | 4.8 | 9.7 | 0.00 | 0.66 | 0.56 | 46 | 1010.5 |
| 20260901024333 | 30 | 185 | 4.8 | 8.0 | 0.00 | 0.66 | 0.56 | 46 | 1010.4 |
| 20260901023341 | 30 | 150 | 1.6 | 3.2 | 0.00 | 0.66 | 0.56 | 46 | 1010.2 |
| 20260901022330 | 30 | 167 | 1.6 | 4.8 | 0.00 | 0.66 | 0.56 | 46 | 1010.2 |
| 20260901021357 | 30 | 129 | 0.0 | 1.6 | 0.00 | 0.66 | 0.56 | 45 | 1010.2 |
| 20260901020343 | 30 | 129 | 0.0 | 1.6 | 0.00 | 0.66 | 0.56 | 45 | 1010.2 |
| 20260901015331 | 30 | 119 | 0.0 | 1.6 | 0.00 | 0.66 | 0.56 | 46 | 1010.3 |
| 20260901014401 | 30 | 82 | 0.0 | 3.2 | 0.00 | 0.66 | 0.56 | 45 | 1010.2 |
| 20260901013345 | 31 | 88 | 1.6 | 3.2 | 0.00 | 0.66 | 0.56 | 44 | 1010.1 |
| 20260901012331 | 31 | 142 | 3.2 | 8.0 | 0.00 | 0.66 | 0.56 | 44 | 1010.3 |
| 20260901011337 | 31 | 86 | 1.6 | 6.4 | 0.00 | 0.66 | 0.56 | 44 | 1010.1 |
| 20260901010348 | 31 | 124 | 4.8 | 8.0 | 0.00 | 0.66 | 0.56 | 43 | 1010.4 |
| 20260901005354 | 31 | 167 | 4.8 | 11.3 | 0.00 | 0.66 | 0.56 | 42 | 1010.3 |
| 20260901004340 | 31 | 158 | 4.8 | 11.3 | 0.00 | 0.66 | 0.56 | 42 | 1010.2 |
| 20260901003328 | 32 | 53 | 6.4 | 12.9 | 0.00 | 0.66 | 0.56 | 43 | 1010.0 |
| 20260901002334 | 32 | 107 | 4.8 | 11.3 | 0.00 | 0.66 | 0.56 | 42 | 1010.3 |
| 20260901001345 | 32 | 65 | 1.6 | 9.7 | 0.00 | 0.66 | 0.56 | 42 | 1010.5 |
| 20260901000353 | 32 | 117 | 6.4 | 17.7 | 0.00 | 0.66 | 0.56 | 43 | 1010.4 |
| 20260831235337 | 32 | 86 | 4.8 | 17.7 | 0.00 | 0.66 | 0.56 | 44 | 1010.6 |
| 20260831234345 | 32 | 32 | 3.2 | 12.9 | 0.00 | 0.66 | 0.56 | 45 | 1010.6 |
| 20260831233337 | 32 | 75 | 6.4 | 11.3 | 0.00 | 0.66 | 0.56 | 45 | 1010.7 |
| 20260831232345 | 31 | 39 | 4.8 | 16.1 | 0.00 | 0.66 | 0.56 | 46 | 1010.9 |
| 20260831231331 | 31 | 92 | 8.0 | 14.5 | 0.00 | 0.66 | 0.56 | 46 | 1010.9 |
| 20260831230338 | 31 | 111 | 4.8 | 16.1 | 0.00 | 0.66 | 0.56 | 46 | 1010.9 |
| 20260831225329 | 31 | 60 | 6.4 | 19.3 | 0.00 | 0.66 | 0.56 | 47 | 1011.0 |
| 20260831224335 | 31 | 86 | 6.4 | 22.5 | 0.00 | 0.66 | 0.56 | 46 | 1011.0 |
| 20260831223342 | 31 | 165 | 9.7 | 17.7 | 0.00 | 0.66 | 0.56 | 45 | 1011.1 |
| 20260831222330 | 31 | 159 | 8.0 | 17.7 | 0.00 | 0.66 | 0.56 | 47 | 1011.3 |
| 20260831221342 | 31 | 78 | 6.4 | 16.1 | 0.00 | 0.66 | 0.56 | 48 | 1011.6 |
| 20260831220330 | 30 | 203 | 8.0 | 17.7 | 0.00 | 0.66 | 0.56 | 48 | 1011.9 |
| 20260831215337 | 30 | 167 | 9.7 | 22.5 | 0.00 | 0.66 | 0.56 | 48 | 1012.2 |
| 20260831214329 | 30 | 173 | 9.7 | 24.1 | 0.00 | 0.66 | 0.56 | 48 | 1012.4 |
| 20260831213356 | 30 | 156 | 8.0 | 22.5 | 0.00 | 0.66 | 0.56 | 49 | 1012.7 |
| 20260831212342 | 30 | 53 | 11.3 | 20.9 | 0.00 | 0.66 | 0.56 | 50 | 1013.0 |
| 20260831211331 | 30 | 175 | 8.0 | 24.1 | 0.00 | 0.66 | 0.56 | 53 | 1013.2 |
| 20260831210336 | 30 | 128 | 6.4 | 22.5 | 0.00 | 0.66 | 0.56 | 54 | 1013.3 |
| 20260831205348 | 30 | 107 | 14.5 | 27.4 | 0.00 | 0.66 | 0.56 | 52 | 1013.6 |
| 20260831204333 | 30 | 160 | 8.0 | 22.5 | 0.00 | 0.66 | 0.56 | 52 | 1013.7 |
| 20260831203340 | 30 | 163 | 12.9 | 24.1 | 0.00 | 0.66 | 0.56 | 51 | 1013.8 |
| 20260831202407 | 29 | 163 | 9.7 | 25.7 | 0.00 | 0.66 | 0.56 | 53 | 1013.9 |
| 20260831201337 | 29 | 133 | 11.3 | 19.3 | 0.00 | 0.66 | 0.56 | 54 | 1013.9 |
| 20260831200344 | 29 | 92 | 8.0 | 16.1 | 0.00 | 0.66 | 0.56 | 57 | 1014.0 |
| 20260831195329 | 29 | 145 | 11.3 | 22.5 | 0.00 | 0.66 | 0.56 | 56 | 1013.9 |
| 20260831194336 | 28 | 188 | 11.3 | 19.3 | 0.00 | 0.66 | 0.56 | 58 | 1014.0 |
| 20260831193341 | 28 | 146 | 8.0 | 20.9 | 0.00 | 0.66 | 0.56 | 59 | 1014.1 |
| 20260831192332 | 27 | 101 | 11.3 | 22.5 | 0.00 | 0.66 | 0.56 | 60 | 1014.1 |
| 20260831191339 | 27 | 98 | 12.9 | 19.3 | 0.00 | 0.66 | 0.56 | 61 | 1014.2 |
| 20260831190326 | 27 | 137 | 8.0 | 19.3 | 0.00 | 0.66 | 0.56 | 67 | 1014.4 |
| 20260831185338 | 26 | 71 | 4.8 | 17.7 | 0.00 | 0.66 | 0.56 | 71 | 1014.6 |
| 20260831184345 | 26 | 67 | 3.2 | 9.7 | 0.00 | 0.66 | 0.56 | 73 | 1014.5 |
| 20260831183331 | 26 | 66 | 4.8 | 16.1 | 0.00 | 0.66 | 0.56 | 74 | 1014.5 |
| 20260831182338 | 26 | 142 | 4.8 | 16.1 | 0.00 | 0.66 | 0.56 | 75 | 1014.4 |
| 20260831181328 | 26 | 105 | 8.0 | 17.7 | 0.00 | 0.66 | 0.56 | 74 | 1014.6 |
| 20260831180336 | 25 | 119 | 9.7 | 17.7 | 0.00 | 0.66 | 0.56 | 74 | 1014.6 |
| 20260831175340 | 25 | 171 | 6.4 | 20.9 | 0.00 | 0.66 | 0.56 | 75 | 1014.6 |
| 20260831174326 | 25 | 90 | 8.0 | 16.1 | 0.00 | 0.66 | 0.56 | 76 | 1014.6 |
| 20260831173337 | 25 | 113 | 8.0 | 17.7 | 0.00 | 0.66 | 0.56 | 77 | 1014.7 |
| 20260831172345 | 25 | 114 | 6.4 | 16.1 | 0.00 | 0.66 | 0.56 | 78 | 1014.9 |
| 20260831171331 | 25 | 65 | 3.2 | 11.3 | 0.00 | 0.66 | 0.56 | 80 | 1014.9 |
| 20260831170358 | 25 | 62 | 4.8 | 14.5 | 0.00 | 0.66 | 0.56 | 82 | 1014.7 |
| 20260831165404 | 24 | 93 | 3.2 | 17.7 | 0.00 | 0.66 | 0.56 | 82 | 1014.8 |
| 20260831164353 | 24 | 66 | 1.6 | 14.5 | 0.00 | 0.66 | 0.56 | 84 | 1014.7 |
| 20260831163339 | 23 | 114 | 3.2 | 20.9 | 0.00 | 0.66 | 0.56 | 85 | 1014.7 |
| 20260831162345 | 23 | 70 | 3.2 | 12.9 | 0.00 | 0.66 | 0.56 | 86 | 1014.5 |
| 20260831161332 | 23 | 104 | 3.2 | 14.5 | 0.05 | 0.66 | 0.56 | 85 | 1014.4 |
| 20260831160339 | 23 | 115 | 1.6 | 14.5 | 0.15 | 0.66 | 0.56 | 84 | 1014.5 |
| 20260831155350 | 23 | 71 | 4.8 | 12.9 | 0.38 | 0.66 | 0.56 | 84 | 1014.4 |